ELECTRON KICK STAGE R/B (44636 NORAD) Tracking and Keplerian Element Data

This shows tracking and keplerian element data for the satellite.

Feedback or suggestion? Click here.




ElementValue
Catalog44636
NameELECTRON KICK STAGE R/B
Epoch Orbit377
Epoch Day316.79586256
Epoch Year2019
RAAN37.2967
Inclination87.9051
Eccentricity0.0500464
Argument of Perigee302.589
Mean Anonmoly52.7903
Mean Motion14.12462287
Decay Rate-1.9E-07
L11 44636U 19069C 19316.79586256 -.00000019 00000-0 -58402-5 0 9992
L22 44636 87.9051 37.2967 0500464 302.5890 52.7903 14.12462287 3775

Live tracking and technical data element details for ELECTRON KICK STAGE R/B (NORAD 44636). ELECTRON KICK STAGE R/B can be tracked NOW for your location showing map with azimuth and elevation plus other details from your city location.

Track the satellite on the map from your city or location and see movement details for azimuth, elevation, latitude, longitude, range, height, and movement on the map or in text.







IsCatalogInMostPopularTable: catalog: 44636, numindb: 9
Update: records affected: 1



GetName: 44636 ELECTRON KICK STAGE R/B

Hit Count: updated at: Thu, 14 Nov 2019 07:16:02 GMT